EW9931 Weather Reports


time (UTC)temp
C
wind
direction
speed
KPH
gust
KPH
rain 1hr
cm
rain 24hr
cm
rain mn
cm
humidity
%
barometer
mb
20260902120041 10 178 1.6 0.0 0.00 0.00 0.00 19 1005.8
20260902114543 10 188 1.6 0.0 0.00 0.00 0.00 21 1005.8
20260902113052 10 162 1.6 0.0 0.00 0.00 0.00 23 1005.7
20260902111539 10 181 1.6 0.0 0.00 0.00 0.00 21 1005.9
20260902110038 10 202 0.0 0.0 0.00 0.00 0.00 20 1006.1
20260902104557 10 175 0.0 0.0 0.00 0.00 0.00 19 1006.2
20260902103037 10 171 0.0 0.0 0.00 0.00 0.00 17 1006.2
20260902101540 10 150 0.0 0.0 0.00 0.00 0.00 18 1006.2
20260902100034 10 202 0.0 0.0 0.00 0.00 0.00 18 1006.2
20260902094535 10 141 0.0 0.0 0.00 0.00 0.00 18 1006.1
20260902093038 11 127 0.0 0.0 0.00 0.00 0.00 18 1006.2
20260902091537 11 137 0.0 0.0 0.00 0.00 0.00 18 1006.3
20260902090032 11 131 0.0 0.0 0.00 0.00 0.00 20 1006.1
20260902084530 11 140 0.0 0.0 0.00 0.00 0.00 21 1006.3
20260902083040 11 198 0.0 0.0 0.00 0.00 0.00 22 1006.3
20260902081530 11 196 0.0 0.0 0.00 0.00 0.00 22 1006.3
20260902080026 11 176 0.0 0.0 0.00 0.00 0.00 24 1006.1
20260902074525 11 133 0.0 0.0 0.00 0.00 0.00 24 1006.1
20260902073028 11 152 0.0 0.0 0.00 0.00 0.00 24 1006.0
20260902071524 11 174 0.0 0.0 0.00 0.00 0.00 25 1006.0
20260902070022 11 143 0.0 0.0 0.00 0.00 0.00 27 1006.5
20260902064522 11 157 0.0 0.0 0.00 0.00 0.00 29 1006.6
20260902063022 11 140 0.0 0.0 0.00 0.00 0.00 34 1006.7
20260902061535 11 140 0.0 0.0 0.00 0.00 0.00 36 1006.8
20260902060020 11 130 0.0 0.0 0.00 0.00 0.00 36 1007.3
20260902054526 11 130 0.0 0.0 0.00 0.00 0.00 37 1006.9
20260902053019 11 128 0.0 0.0 0.00 0.00 0.00 36 1007.0
20260902051518 11 128 0.0 0.0 0.00 0.00 0.00 36 1007.1
20260902050018 11 126 0.0 0.0 0.00 0.00 0.00 36 1007.5
20260902044525 11 130 0.0 0.0 0.00 0.00 0.00 37 1007.4
20260902043018 11 130 0.0 0.0 0.00 0.00 0.00 38 1007.3
20260902041517 12 126 0.0 0.0 0.00 0.00 0.00 46 1007.0
20260902040016 12 150 0.0 0.0 0.00 0.00 0.00 48 1007.0
20260902034515 12 182 0.0 0.0 0.00 0.00 0.00 48 1007.0
20260902033014 12 191 1.6 0.0 0.00 0.00 0.00 47 1006.7
20260902031525 12 160 0.0 0.0 0.00 0.00 0.00 47 1006.1
20260902030013 12 130 1.6 0.0 0.00 0.00 0.00 45 1006.5
20260902024514 12 191 1.6 0.0 0.00 0.00 0.00 44 1006.6
20260902023026 12 158 1.6 0.0 0.00 0.00 0.00 39 1006.6
20260902021510 12 161 1.6 0.0 0.00 0.00 0.00 38 1006.2
20260902020018 13 158 0.0 0.0 0.00 0.00 0.00 36 1006.8
20260902014518 13 195 1.6 0.0 0.00 0.00 0.00 34 1006.5
20260902013008 13 140 1.6 0.0 0.00 0.00 0.00 35 1006.4
20260902011507 14 219 3.2 0.0 0.00 0.00 0.00 35 1006.1
20260902010010 15 126 3.2 0.0 0.00 0.00 0.00 35 1006.0
20260902004507 16 124 6.4 0.0 0.00 0.00 0.00 35 1005.6
20260902003006 16 167 3.2 0.0 0.00 0.00 0.00 34 1005.7
20260902001506 17 121 3.2 0.0 0.00 0.00 0.00 28 1005.3
20260902000004 17 264 3.2 0.0 0.00 0.00 0.00 26 1005.4
20260901234503 17 253 4.8 0.0 0.00 0.00 0.00 25 1005.9
20260901233002 17 150 4.8 0.0 0.00 0.00 0.00 22 1005.4
20260901231503 17 186 4.8 0.0 0.00 0.00 0.00 22 1005.4
20260901230002 17 206 6.4 0.0 0.00 0.00 0.00 22 1005.5
20260901224601 18 210 3.2 0.0 0.00 0.00 0.00 20 1005.4
20260901223057 17 185 4.8 0.0 0.00 0.00 0.00 20 1005.8
20260901221624 17 212 9.7 0.0 0.00 0.00 0.00 20 1006.3
20260901220115 17 219 8.0 0.0 0.00 0.00 0.00 19 1005.9
20260901214554 17 23 4.8 0.0 0.00 0.00 0.00 19 1005.6
20260901213104 17 191 6.4 0.0 0.00 0.00 0.00 17 1005.8
20260901211545 17 124 6.4 0.0 0.00 0.00 0.00 16 1006.3
20260901210040 17 112 4.8 0.0 0.00 0.00 0.00 16 1006.2
20260901204536 17 162 6.4 0.0 0.00 0.00 0.00 17 1006.2
20260901203033 17 130 6.4 0.0 0.00 0.00 0.00 17 1006.3
20260901201533 17 160 8.0 0.0 0.00 0.00 0.00 17 1006.4
20260901200036 17 195 6.4 0.0 0.00 0.00 0.00 18 1006.3
20260901194525 17 184 8.0 0.0 0.00 0.00 0.00 18 1006.5
20260901193021 16 224 9.7 0.0 0.00 0.00 0.00 19 1006.6
20260901191523 16 167 8.0 0.0 0.00 0.00 0.00 19 1006.8
20260901190021 16 195 8.0 0.0 0.00 0.00 0.00 18 1007.3
20260901184513 16 217 6.4 0.0 0.00 0.00 0.00 19 1007.4
20260901183011 16 144 6.4 0.0 0.00 0.00 0.00 16 1007.4
20260901181518 15 189 6.4 0.0 0.00 0.00 0.00 15 1007.8
20260901180009 15 198 4.8 0.0 0.00 0.00 0.00 16 1007.4
20260901174508 15 203 8.0 0.0 0.00 0.00 0.00 17 1007.8
20260901173006 14 181 6.4 0.0 0.00 0.00 0.00 17 1007.4
20260901171505 14 219 6.4 0.0 0.00 0.00 0.00 19 1007.3
20260901170004 14 212 4.8 0.0 0.00 0.00 0.00 18 1007.3
20260901164503 14 130 6.4 0.0 0.00 0.00 0.00 16 1007.3
20260901163002 13 206 8.0 0.0 0.00 0.00 0.00 16 1007.0
20260901161601 13 216 4.8 0.0 0.00 0.00 0.00 16 1006.9
20260901160115 13 167 3.2 0.0 0.00 0.00 0.00 17 1007.3
20260901154558 13 210 4.8 0.0 0.00 0.00 0.00 16 1007.2
20260901153109 13 192 4.8 0.0 0.00 0.00 0.00 17 1007.1
20260901151556 12 200 4.8 0.0 0.00 0.00 0.00 17 1007.1
20260901150108 12 121 4.8 0.0 0.00 0.00 0.00 17 1007.0
20260901144555 12 202 4.8 0.0 0.00 0.00 0.00 20 1006.9
20260901143111 12 185 4.8 0.0 0.00 0.00 0.00 26 1006.9
20260901141552 12 133 3.2 0.0 0.00 0.00 0.00 27 1006.5
20260901140127 12 208 3.2 0.0 0.00 0.00 0.00 32 1006.3
20260901134546 12 182 3.2 0.0 0.00 0.00 0.00 26 1006.3
20260901133044 12 216 4.8 0.0 0.00 0.00 0.00 24 1006.1
20260901131544 12 176 4.8 0.0 0.00 0.00 0.00 24 1005.9
20260901130043 12 150 1.6 0.0 0.00 0.00 0.00 17 1005.6
20260901124540 11 137 1.6 0.0 0.00 0.00 0.00 17 1005.5
20260901123039 11 124 1.6 0.0 0.00 0.00 0.00 16 1005.5
20260901121537 11 176 1.6 0.0 0.00 0.00 0.00 17 1005.4